MEV-2

Last updated on Sun Dec 07 2025 00:02:50 GMT+0000 (Coordinated Universal Time)

1 46113U 20056B 25340.43030782 -.00000004 00000+0 00000+0 0 9992 2 46113 0.0389 75.8915 0001165 208.9538 304.5467 1.00270506 19178
UTC large
Height (km)
Speed (km/s)
/
Latitude / Longitude
Inclination (degrees)
Orbital Period (minutes)
Azimuth
Elevation
Range (km)
Doppler Factor

Next 0 passes for location: London (51.5072 / 0.1276)

Sorry there are no passes over London.